Voltar ao catálogo

DELTA 1 DEB

LostSSO
NORAD 40770·DEBRIS·🇺🇸 United States

Lançado Jul 29, 1976 de Vandenberg Space Force Base

Loading…

Próximas Passagens (próximas 24 horas)

TLE

ObsoletoSource: Space-Track

Época: Jan 5, 2024, 17:25 UTC

1 40770U 76077GP  24005.72576203  .00000204  00000-0  15233-2 0  9990
2 40770 101.6948 339.7520 0049959 113.4754 247.1581 12.55011382108958

Acompanhe DELTA 1 DEB em tempo real com AllMySat

Download on the App Store